Flag for U.S.A. Weather past 2 weeks in West Covina, California, U.S.A.

Now
64 °F

Clear.


Feels Like: 64 °F
Forecast: 62 / 87 °F
Wind: 6 mph from Southeast

Location: Fullerton Municipal Airport

Current Time: May 29, 2015 at 11:59:33 PM

Latest Report: May 29, 2015 at 10:53 PM


Visibility: 10 mi

Pressure: 29.91 "Hg

Humidity: 75%

Dew point: 56 °F

Location of West CovinaLocation

Historic Weather in West Covina — Graph

°F

West Covina temperature yesterday

Maximum temperature yesterday: 77 °F (at 2:53 PM)
Minimum temperature yesterday: 58 °F (at 3:53 AM)
Average temperature yesterday: 66 °F

Past Weeks' High & Low Weather Summary

 TemperatureHumidityPressure
High78 °F (May 29, 1:53 PM)84% (May 15, 1:53 AM)30.08 "Hg (May 15, 1:53 AM)
Low55 °F (May 15, 10:53 AM)39% (May 21, 1:53 PM)29.82 "Hg (May 15, 4:53 PM)
Average64 °F64%29.97 "Hg
* Reported May 14 10:53 PM — May 29 10:53 PM, West Covina, Weather by CustomWeather, © 2015

Note: Actual official high and low records may vary slightly from our data, if they occured in-between our weather recording intervals... More about our weather records

Advertising

West Covina weather history for previous 24 hours

 ConditionsComfort  
Time TempWeatherWind HumidityBarometerVisibility
10:53 PM
Fri, May 29
64 °FClear.6 mph75%29.91 "Hg10 mi
9:53 PM65 °FClear.5 mph76%29.91 "Hg10 mi
8:53 PM66 °FSunny.5 mph73%29.90 "Hg10 mi
7:53 PM67 °FSunny.5 mph68%29.89 "Hg10 mi
6:53 PM69 °FSunny.8 mph63%29.88 "Hg10 mi
5:53 PM73 °FSunny.8 mph57%29.86 "Hg10 mi
4:53 PM75 °FSunny.7 mph52%29.86 "Hg10 mi
3:53 PM76 °FSunny.8 mph50%29.88 "Hg10 mi
2:53 PM77 °FSunny.8 mph48%29.90 "Hg9 mi
1:53 PM78 °FSunny.10 mph46%29.90 "Hg10 mi
12:53 PM77 °FSunny.5 mph48%29.91 "Hg8 mi
11:53 AM75 °FSunny.No wind50%29.93 "Hg7 mi
10:53 AM71 °FSunny.No wind57%29.94 "Hg6 mi
9:53 AM67 °FOvercast.No wind66%29.95 "Hg6 mi
8:53 AM64 °FOvercast.No wind73%29.96 "Hg6 mi
7:53 AM63 °FOvercast.No wind75%29.95 "Hg6 mi
6:53 AM62 °FOvercast.3 mph78%29.95 "Hg6 mi
5:53 AM62 °FOvercast.3 mph78%29.93 "Hg8 mi
4:53 AM61 °FLow clouds.No wind83%29.93 "Hg7 mi
3:53 AM61 °FLow clouds.3 mph83%29.93 "Hg7 mi
2:53 AM62 °FOvercast.No wind80%29.93 "Hg7 mi
1:53 AM62 °FLow clouds.3 mph80%29.94 "Hg8 mi
12:53 AM62 °FOvercast.5 mph80%29.94 "Hg10 mi
11:53 PM
Thu, May 28
62 °FClear.No wind80%29.95 "Hg10 mi
Weather by CustomWeather, © 2015

See weather overviewHow to use our weather pages